Luxor, Egypt

2:41 AM EET on December 05, 2016 (GMT +0200)
Luxor International

Weather History for HELX - February, 2013

Change the Weather History Date:

Saturday, February 23, 2013

  Actual Average Record
Temperature  
Mean Temperature 65 °F -  
Max Temperature 80 °F 77 °F 89 °F (2002)
Min Temperature 50 °F 49 °F 42 °F (2001)
Growing Degree Days 15 (Base 50)    
Moisture  
Dew Point 44 °F    
Average Humidity 38    
Maximum Humidity 52    
Minimum Humidity 18    
Precipitation  
Precipitation 0.00 in - - ()
Sea Level Pressure  
Sea Level Pressure 30.03 in    
Wind  
Wind Speed 4 mph ()    
Max Wind Speed 9 mph    
Max Gust Speed -    
Visibility 2.4 miles    
Events      
Averages and records for this station are not official NWS values.
T = Trace of Precipitation, MM = Missing Value Source: Averaged Metar Reports

Daily Weather History Graph

Daily Weather History Graph

Search for Another Location

Airport or City:

Trip Planner

Search our weather history database for the weather conditions in past years. The results will help you decide how hot, cold, wet, or windy it might be!

Date:

Astronomy

Feb. 23, 2013 Rise Set
Actual Time 6:17 AM EET 5:47 PM EET
Civil Twilight 5:54 AM EET 6:10 PM EET
Nautical Twilight 5:27 AM EET 6:37 PM EET
Astronomical Twilight 5:01 AM EET 7:04 PM EET
Moon 3:45 PM EET (2/23) 4:18 AM EET (2/23)
Length of Visible Light 12h 16m
Length of Day
11h 29m
Waxing Gibbous, 94% of the Moon is Illuminated
Feb 23
Waxing Gibbous
Feb 25
Full
Mar 4
Last Quarter
Mar 11
New
Mar 19
First Quarter

Hourly Weather History & Observations

Time (EET) Temp. Dew Point Humidity Pressure Visibility Wind Dir Wind Speed Gust Speed Precip Events Conditions
12:00 AM 71.6 °F 35.6 °F 27% 29.92 in 1.9 mi WNW 4.6 mph - N/A   Haze
1:00 AM 69.8 °F 35.6 °F 28% 29.92 in 1.9 mi WNW 4.6 mph - N/A   Haze
2:00 AM 70 °F 36 °F 18% 29.93 in 2 mi WNW 6.9 mph - -   Haze
2:00 AM 69.8 °F 35.6 °F 28% 29.92 in 1.9 mi WNW 6.9 mph - N/A   Haze
3:00 AM 66.2 °F 35.6 °F 32% 29.95 in 1.9 mi West 4.6 mph - N/A   Haze
4:00 AM 66.2 °F 37.4 °F 35% 29.95 in 1.9 mi Calm Calm - N/A   Haze
5:00 AM 62.6 °F 37.4 °F 39% 29.98 in 1.9 mi Calm Calm - N/A   Haze
6:00 AM 64.4 °F 39.2 °F 40% 30.01 in 1.9 mi NNW 3.5 mph - N/A   Haze
7:00 AM 64.4 °F 41.0 °F 42% 30.04 in 1.9 mi Calm Calm - N/A   Haze
8:00 AM 64 °F 44 °F 36% 30.06 in 2 mi Calm Calm - -   Haze
8:00 AM 64.4 °F 42.8 °F 45% 30.06 in 1.9 mi Calm Calm - N/A   Haze
9:00 AM 68.0 °F 46.4 °F 46% 30.06 in 1.9 mi NW 4.6 mph - N/A   Haze
10:00 AM 71.6 °F 46.4 °F 41% 30.06 in 1.9 mi NNW 5.8 mph - N/A   Haze
11:00 AM 73.4 °F 50.0 °F 44% 30.09 in 1.9 mi NW 8.1 mph - N/A   Haze
12:00 PM 75.2 °F 50.0 °F 41% 30.06 in 1.9 mi NW 8.1 mph - N/A   Haze
1:00 PM 77.0 °F 51.8 °F 41% 30.04 in 1.9 mi North 3.5 mph - N/A   Haze
2:00 PM 79 °F 48 °F 23% 30.04 in 3 mi NNW 8.1 mph - -   Haze
2:00 PM 78.8 °F 48.2 °F 34% 30.04 in 3.1 mi NNW 8.1 mph - N/A   Haze
3:00 PM 78.8 °F 48.2 °F 34% 30.04 in 3.1 mi NNW 8.1 mph - N/A   Haze
4:00 PM 78.8 °F 48.2 °F 34% 30.01 in 3.1 mi NW 5.8 mph - N/A   Haze
5:00 PM 77.0 °F 48.2 °F 36% 30.04 in 3.1 mi NW 4.6 mph - N/A   Haze
6:00 PM 73.4 °F 48.2 °F 41% 30.04 in 3.1 mi NW 4.6 mph - N/A   Haze
7:00 PM 71.6 °F 44.6 °F 38% 30.06 in 3.1 mi WNW 5.8 mph - N/A   Haze
8:00 PM 69 °F 46 °F 32% 30.09 in 3 mi SW 2.3 mph - -   Haze
8:00 PM 69.8 °F 46.4 °F 43% 30.06 in 3.1 mi NNW 2.3 mph - N/A   Haze
9:00 PM 66.2 °F 46.4 °F 49% 30.09 in 3.1 mi West 9.2 mph - N/A   Haze
10:00 PM 64.4 °F 46.4 °F 52% 30.09 in 3.1 mi WNW 2.3 mph - N/A   Haze
11:00 PM 64.4 °F 46.4 °F 52% 30.12 in 3.1 mi Calm Calm - N/A   Haze